Time,TemperatureF,DewpointF,PressureIn,WindDirection,WindDirectionDegrees,WindSpeedMPH,WindSpeedGustMPH,Humidity,HourlyPrecipIn,Conditions,Clouds,dailyrainin,SoftwareType,DateUTC
2013-10-05 00:13:00,52.0,49.0,30.07,SSE,155,0.0,2.0,89,0.00,,,0.00,,2013-10-05 05:13:00,
2013-10-05 00:22:00,52.0,49.0,30.07,SSE,149,0.0,2.0,88,0.00,,,0.00,,2013-10-05 05:22:00,
2013-10-05 00:43:00,52.0,49.0,30.07,East,96,0.0,1.0,89,0.00,,,0.00,,2013-10-05 05:43:00,
2013-10-05 00:52:00,52.0,49.0,30.07,ESE,121,0.0,3.0,89,0.00,,,0.00,,2013-10-05 05:52:00,
2013-10-05 01:12:00,52.0,49.0,30.06,SE,140,0.0,1.0,89,0.00,,,0.00,,2013-10-05 06:12:00,
2013-10-05 01:22:00,52.0,49.0,30.06,SSE,155,0.0,3.0,89,0.00,,,0.00,,2013-10-05 06:22:00,
2013-10-05 01:42:00,52.0,49.0,30.04,East,98,0.0,2.0,89,0.00,,,0.00,,2013-10-05 06:42:00,
2013-10-05 01:52:00,52.0,49.0,30.04,East,98,1.0,4.0,90,0.00,,,0.00,,2013-10-05 06:52:00,
2013-10-05 02:12:00,52.0,49.0,30.03,ESE,104,1.0,6.0,90,0.00,,,0.00,,2013-10-05 07:12:00,
2013-10-05 02:22:00,52.0,49.0,30.03,East,81,0.0,4.0,91,0.00,,,0.00,,2013-10-05 07:22:00,
2013-10-05 02:42:00,52.0,50.0,30.03,ESE,107,0.0,5.0,93,0.00,,,0.00,,2013-10-05 07:42:00,
2013-10-05 02:52:00,51.0,49.0,30.03,SE,125,0.0,7.0,94,0.00,,,0.00,,2013-10-05 07:52:00,
2013-10-05 03:12:00,51.0,50.0,30.03,ENE,73,0.0,4.0,95,0.00,,,0.00,,2013-10-05 08:12:00,
2013-10-05 03:23:00,51.0,50.0,30.04,ENE,61,0.0,2.0,96,0.00,,,0.00,,2013-10-05 08:23:00,
2013-10-05 03:42:00,51.0,50.0,30.03,South,184,0.0,2.0,97,0.00,,,0.00,,2013-10-05 08:42:00,
2013-10-05 03:52:00,51.0,50.0,30.00,ENE,72,0.0,7.0,97,0.00,,,0.00,,2013-10-05 08:52:00,
2013-10-05 04:11:00,51.0,50.0,30.02,South,191,0.0,2.0,97,0.00,,,0.00,,2013-10-05 09:11:00,
2013-10-05 04:22:00,51.0,50.0,30.03,ENE,62,0.0,2.0,97,0.00,,,0.00,,2013-10-05 09:22:00,
2013-10-05 04:43:00,51.0,50.0,30.03,ESE,115,0.0,2.0,97,0.00,,,0.00,,2013-10-05 09:43:00,
2013-10-05 04:54:00,51.0,50.0,30.03,SSE,162,0.0,3.0,97,0.00,,,0.00,,2013-10-05 09:54:00,
2013-10-05 05:12:00,51.0,50.0,30.04,East,100,0.0,1.0,97,0.00,,,0.00,,2013-10-05 10:12:00,
2013-10-05 05:23:00,51.0,50.0,30.05,ENE,75,0.0,3.0,98,0.00,,,0.00,,2013-10-05 10:23:00,
2013-10-05 05:43:00,50.0,49.0,30.03,East,98,0.0,3.0,98,0.00,,,0.00,,2013-10-05 10:43:00,
2013-10-05 05:53:00,50.0,49.0,30.02,ENE,77,1.0,5.0,98,0.00,,,0.00,,2013-10-05 10:53:00,
2013-10-05 06:11:00,50.0,49.0,30.02,East,89,0.0,4.0,98,0.00,,,0.00,,2013-10-05 11:11:00,
2013-10-05 06:22:00,50.0,49.0,30.01,SE,125,0.0,5.0,98,0.00,,,0.00,,2013-10-05 11:22:00,
2013-10-05 06:42:00,50.0,49.0,29.98,SSE,167,1.0,5.0,98,0.00,,,0.00,,2013-10-05 11:42:00,
2013-10-05 06:52:00,50.0,49.0,29.97,NE,39,1.0,9.0,98,0.00,,,0.00,,2013-10-05 11:52:00,
2013-10-05 07:12:00,50.0,49.0,29.96,East,86,1.0,4.0,98,0.00,,,0.00,,2013-10-05 12:12:00,
2013-10-05 07:22:00,50.0,49.0,29.95,SSE,166,2.0,6.0,98,0.00,,,0.00,,2013-10-05 12:22:00,
2013-10-05 07:42:00,50.0,49.0,29.98,ESE,122,0.0,6.0,98,0.00,,,0.00,,2013-10-05 12:42:00,
2013-10-05 07:52:00,50.0,49.0,29.99,ESE,122,1.0,5.0,98,0.00,,,0.00,,2013-10-05 12:52:00,
2013-10-05 08:12:00,50.0,49.0,29.98,ENE,65,0.0,3.0,98,0.00,,,0.00,,2013-10-05 13:12:00,
2013-10-05 08:22:00,50.0,49.0,29.98,ESE,113,0.0,5.0,98,0.00,,,0.00,,2013-10-05 13:22:00,
2013-10-05 08:42:00,50.0,49.0,29.98,SSE,157,0.0,3.0,98,0.00,,,0.00,,2013-10-05 13:42:00,
2013-10-05 08:52:00,50.0,49.0,29.98,ENE,58,0.0,3.0,98,0.00,,,0.00,,2013-10-05 13:52:00,
2013-10-05 09:12:00,50.0,49.0,29.97,ESE,102,1.0,4.0,98,0.00,,,0.00,,2013-10-05 14:12:00,
2013-10-05 09:22:00,50.0,49.0,29.97,SE,146,0.0,3.0,98,0.00,,,0.00,,2013-10-05 14:22:00,
2013-10-05 09:42:00,50.0,49.0,29.96,SSE,158,1.0,6.0,98,0.00,,,0.00,,2013-10-05 14:42:00,
2013-10-05 09:52:00,50.0,49.0,29.96,East,86,0.0,5.0,98,0.00,,,0.00,,2013-10-05 14:52:00,
2013-10-05 10:12:00,50.0,50.0,29.96,ENE,77,0.0,7.0,99,0.00,,,0.00,,2013-10-05 15:12:00,
2013-10-05 10:22:00,50.0,50.0,29.96,ESE,105,0.0,7.0,99,0.00,,,0.00,,2013-10-05 15:22:00,
2013-10-05 10:44:00,51.0,51.0,29.96,ENE,74,0.0,8.0,99,0.00,,,0.00,,2013-10-05 15:44:00,
2013-10-05 10:53:00,51.0,51.0,29.96,East,84,0.0,9.0,99,0.00,,,0.00,,2013-10-05 15:53:00,
2013-10-05 11:13:00,51.0,51.0,29.98,ESE,105,0.0,2.0,99,0.00,,,0.00,,2013-10-05 16:13:00,
2013-10-05 11:23:00,51.0,51.0,29.98,ESE,110,0.0,3.0,99,0.00,,,0.00,,2013-10-05 16:23:00,
2013-10-05 11:43:00,51.0,51.0,29.99,ESE,115,0.0,3.0,99,0.00,,,0.00,,2013-10-05 16:43:00,
2013-10-05 11:53:00,51.0,51.0,29.98,SE,132,0.0,5.0,99,0.00,,,0.00,,2013-10-05 16:53:00,
2013-10-05 12:12:00,51.0,51.0,29.98,ESE,108,0.0,4.0,99,0.00,,,0.00,,2013-10-05 17:12:00,
2013-10-05 12:22:00,51.0,51.0,29.97,SE,129,0.0,3.0,99,0.00,,,0.00,,2013-10-05 17:22:00,
2013-10-05 12:42:00,51.0,51.0,29.96,ESE,110,0.0,3.0,99,0.00,,,0.00,,2013-10-05 17:42:00,
2013-10-05 12:53:00,51.0,51.0,29.97,East,100,0.0,2.0,99,0.00,,,0.00,,2013-10-05 17:53:00,
2013-10-05 13:12:00,50.0,50.0,29.95,East,86,0.0,4.0,99,0.00,,,0.00,,2013-10-05 18:12:00,
2013-10-05 13:22:00,51.0,51.0,29.94,East,96,0.0,3.0,99,0.00,,,0.00,,2013-10-05 18:22:00,
2013-10-05 13:42:00,51.0,51.0,29.93,East,98,0.0,3.0,99,0.00,,,0.00,,2013-10-05 18:42:00,
2013-10-05 13:52:00,51.0,50.0,29.92,ESE,110,1.0,4.0,98,0.00,,,0.00,,2013-10-05 18:52:00,
2013-10-05 14:11:00,51.0,50.0,29.92,ENE,71,1.0,5.0,98,0.00,,,0.00,,2013-10-05 19:11:00,
2013-10-05 14:22:00,51.0,50.0,29.91,East,99,1.0,5.0,98,0.00,,,0.00,,2013-10-05 19:22:00,
2013-10-05 14:32:00,51.0,50.0,29.91,East,99,1.0,5.0,98,0.00,,,0.00,,2013-10-05 19:32:00,
2013-10-05 14:42:00,51.0,50.0,29.91,East,99,1.0,5.0,98,0.00,,,0.00,,2013-10-05 19:42:00,
2013-10-05 14:52:00,51.0,50.0,29.90,ESE,115,1.0,3.0,98,0.00,,,0.00,,2013-10-05 19:52:00,
2013-10-05 15:11:00,51.0,50.0,29.91,ESE,110,0.0,4.0,98,0.01,,,0.01,,2013-10-05 20:11:00,
2013-10-05 15:22:00,51.0,50.0,29.89,East,91,1.0,3.0,98,0.01,,,0.01,,2013-10-05 20:22:00,
2013-10-05 15:42:00,51.0,50.0,29.89,ESE,115,0.0,6.0,98,0.01,,,0.01,,2013-10-05 20:42:00,
2013-10-05 15:52:00,51.0,50.0,29.88,SSE,148,1.0,6.0,98,0.01,,,0.01,,2013-10-05 20:52:00,
2013-10-05 16:12:00,51.0,50.0,29.89,SE,125,0.0,2.0,98,0.00,,,0.01,,2013-10-05 21:12:00,
2013-10-05 16:22:00,51.0,50.0,29.89,East,82,1.0,3.0,98,0.00,,,0.01,,2013-10-05 21:22:00,
2013-10-05 16:44:00,51.0,50.0,29.90,ESE,118,0.0,2.0,98,0.00,,,0.01,,2013-10-05 21:44:00,
2013-10-05 16:54:00,51.0,50.0,29.90,ESE,115,0.0,3.0,98,0.00,,,0.01,,2013-10-05 21:54:00,
2013-10-05 17:13:00,51.0,50.0,29.89,East,93,0.0,4.0,98,0.01,,,0.02,,2013-10-05 22:13:00,
2013-10-05 17:24:00,50.0,49.0,29.90,ESE,115,0.0,3.0,98,0.01,,,0.02,,2013-10-05 22:24:00,
2013-10-05 17:42:00,50.0,49.0,29.90,NE,50,0.0,5.0,98,0.01,,,0.02,,2013-10-05 22:42:00,
2013-10-05 17:53:00,50.0,49.0,29.89,East,96,0.0,2.0,98,0.01,,,0.02,,2013-10-05 22:53:00,
2013-10-05 18:13:00,50.0,49.0,29.89,SSE,160,1.0,5.0,98,0.00,,,0.02,,2013-10-05 23:13:00,
2013-10-05 18:22:00,50.0,49.0,29.88,WNW,293,0.0,4.0,98,0.00,,,0.02,,2013-10-05 23:22:00,
2013-10-05 18:42:00,50.0,49.0,29.88,SE,139,0.0,3.0,98,0.00,,,0.02,,2013-10-05 23:42:00,
2013-10-05 18:53:00,49.0,48.0,29.87,ENE,58,0.0,3.0,98,0.01,,,0.03,,2013-10-05 23:53:00,
2013-10-05 19:12:00,49.0,48.0,29.87,SE,134,0.0,3.0,98,0.01,,,0.03,,2013-10-06 00:12:00,
2013-10-05 19:23:00,49.0,48.0,29.86,East,83,0.0,3.0,98,0.01,,,0.03,,2013-10-06 00:23:00,
2013-10-05 19:32:00,49.0,48.0,29.86,East,83,0.0,3.0,98,0.01,,,0.03,,2013-10-06 00:32:00,
2013-10-05 19:43:00,49.0,48.0,29.86,East,83,0.0,3.0,98,0.01,,,0.03,,2013-10-06 00:43:00,
2013-10-05 19:52:00,49.0,48.0,29.86,East,96,0.0,3.0,98,0.00,,,0.03,,2013-10-06 00:52:00,
2013-10-05 20:11:00,49.0,49.0,29.85,SE,131,1.0,4.0,99,0.00,,,0.03,,2013-10-06 01:11:00,
2013-10-05 20:22:00,49.0,49.0,29.84,ESE,105,0.0,2.0,99,0.00,,,0.03,,2013-10-06 01:22:00,
2013-10-05 20:42:00,49.0,49.0,29.83,ESE,114,0.0,5.0,99,0.01,,,0.04,,2013-10-06 01:42:00,
2013-10-05 20:52:00,49.0,49.0,29.83,East,85,1.0,5.0,99,0.01,,,0.04,,2013-10-06 01:52:00,
2013-10-05 21:11:00,49.0,49.0,29.82,ENE,77,0.0,6.0,99,0.01,,,0.04,,2013-10-06 02:11:00,
2013-10-05 21:22:00,49.0,49.0,29.82,ESE,105,0.0,6.0,99,0.01,,,0.04,,2013-10-06 02:22:00,
2013-10-05 21:42:00,49.0,49.0,29.81,East,101,0.0,2.0,99,0.00,,,0.04,,2013-10-06 02:42:00,
2013-10-05 21:53:00,49.0,49.0,29.81,ENE,67,0.0,2.0,99,0.00,,,0.04,,2013-10-06 02:53:00,
2013-10-05 22:12:00,50.0,50.0,29.80,ENE,71,0.0,2.0,99,0.00,,,0.04,,2013-10-06 03:12:00,
2013-10-05 22:22:00,50.0,50.0,29.80,East,84,1.0,4.0,99,0.01,,,0.05,,2013-10-06 03:22:00,
2013-10-05 22:44:00,50.0,50.0,29.79,ESE,107,0.0,3.0,99,0.01,,,0.05,,2013-10-06 03:44:00,
2013-10-05 22:54:00,50.0,50.0,29.78,East,82,0.0,2.0,99,0.01,,,0.05,,2013-10-06 03:54:00,
2013-10-05 23:13:00,51.0,51.0,29.78,ENE,59,0.0,3.0,99,0.01,,,0.05,,2013-10-06 04:13:00,
2013-10-05 23:24:00,51.0,51.0,29.77,ESE,113,0.0,4.0,99,0.01,,,0.06,,2013-10-06 04:24:00,
2013-10-05 23:44:00,51.0,51.0,29.76,ENE,67,0.0,2.0,99,0.01,,,0.06,,2013-10-06 04:44:00,
2013-10-05 23:54:00,51.0,51.0,29.74,East,84,0.0,1.0,99,0.01,,,0.06,,2013-10-06 04:54:00,